• en France
  • Liste des pays
  • À 7 jours
  • Température de l'eau
  • Carte satellitaire
  • Carte météo
  • Widgets météo
  • user-avatar
    Se connecter

    Météo par heure à Ballycastle

    Ce jour, 18 Novembre, Samedi

    Heure Température Précipitation Vent Pression Humidité
    00:00 +5°C° 0 mm 9 m/s 762 mmHg 83%
    01:00 +5°C° 0,1 mm 9 m/s 762 mmHg 82%
    02:00 +5°C° 0,1 mm 9 m/s 762 mmHg 80%
    03:00 +5°C° 0,1 mm 9 m/s 762 mmHg 79%
    04:00 +5°C° 0,1 mm 9 m/s 762 mmHg 80%
    05:00 +5°C° 0,1 mm 8 m/s 762 mmHg 81%
    06:00 +4°C° 0 mm 8 m/s 762 mmHg 82%
    07:00 +4°C° 0 mm 7 m/s 762 mmHg 81%
    08:00 +4°C° 0 mm 7 m/s 762 mmHg 81%
    09:00 +4°C° 0 mm 7 m/s 762 mmHg 80%
    10:00 +5°C° 0 mm 7 m/s 763 mmHg 76%
    11:00 +5°C° 0 mm 7 m/s 763 mmHg 73%
    12:00 +6°C° 0 mm 7 m/s 763 mmHg 69%
    13:00 +6°C° 0 mm 7 m/s 763 mmHg 70%
    14:00 +6°C° 0 mm 7 m/s 763 mmHg 70%
    15:00 +5°C° 0 mm 7 m/s 763 mmHg 71%
    16:00 +5°C° 0 mm 6 m/s 763 mmHg 73%
    17:00 +4°C° 0 mm 6 m/s 763 mmHg 74%
    18:00 +3°C° 0 mm 6 m/s 763 mmHg 76%
    19:00 +3°C° 0 mm 5 m/s 763 mmHg 76%
    20:00 +3°C° 0 mm 5 m/s 764 mmHg 76%
    21:00 +3°C° 0 mm 5 m/s 764 mmHg 77%
    22:00 +3°C° 0 mm 5 m/s 764 mmHg 77%
    23:00 +3°C° 0 mm 4 m/s 764 mmHg 78%

    Demain, 19 Novembre, Dimanche

    Heure Température Précipitation Vent Pression Humidité
    00:00 +3°C° 0 mm 4 m/s 764 mmHg 78%
    01:00 +3°C° 0 mm 4 m/s 764 mmHg 79%
    02:00 +3°C° 0 mm 3 m/s 764 mmHg 79%
    03:00 +3°C° 0 mm 3 m/s 764 mmHg 80%
    04:00 +4°C° 0 mm 2 m/s 764 mmHg 80%
    05:00 +4°C° 0 mm 2 m/s 763 mmHg 80%
    06:00 +5°C° 0 mm 2 m/s 763 mmHg 80%
    07:00 +5°C° 0 mm 2 m/s 763 mmHg 80%
    08:00 +5°C° 0 mm 2 m/s 763 mmHg 81%
    09:00 +5°C° 0 mm 2 m/s 763 mmHg 81%
    10:00 +5°C° 0 mm 2 m/s 763 mmHg 80%
    11:00 +5°C° 0 mm 3 m/s 763 mmHg 78%
    12:00 +5°C° 0 mm 3 m/s 763 mmHg 77%
    13:00 +5°C° 0,1 mm 4 m/s 762 mmHg 80%
    14:00 +5°C° 0,1 mm 5 m/s 761 mmHg 83%
    15:00 +5°C° 0,1 mm 5 m/s 761 mmHg 87%
    16:00 +5°C° 0,2 mm 5 m/s 760 mmHg 89%
    17:00 +4°C° 0,2 mm 6 m/s 759 mmHg 92%
    18:00 +5°C° 0,2 mm 6 m/s 759 mmHg 94%
    19:00 +5°C° 1,1 mm 7 m/s 758 mmHg 94%
    20:00 +6°C° 1,1 mm 7 m/s 757 mmHg 94%
    21:00 +7°C° 1,1 mm 8 m/s 756 mmHg 94%
    22:00 +7°C° 0,9 mm 8 m/s 755 mmHg 93%
    23:00 +8°C° 0,9 mm 9 m/s 754 mmHg 93%

    Après-demain, 20 Novembre, Lundi

    Heure Température Précipitation Vent Pression Humidité
    00:00 +8°C° 0,9 mm 9 m/s 754 mmHg 92%
    01:00 +10°C° 0,3 mm 9 m/s 753 mmHg 93%
    02:00 +10°C° 0,3 mm 8 m/s 753 mmHg 93%
    03:00 +11°C° 0,3 mm 7 m/s 752 mmHg 93%
    04:00 +11°C° 0,3 mm 7 m/s 752 mmHg 92%
    05:00 +11°C° 0,3 mm 7 m/s 752 mmHg 92%
    06:00 +11°C° 0,3 mm 7 m/s 752 mmHg 91%
    07:00 +10°C° 0,3 mm 7 m/s 752 mmHg 91%
    08:00 +10°C° 0,3 mm 7 m/s 752 mmHg 91%
    09:00 +10°C° 0,3 mm 7 m/s 752 mmHg 91%
    10:00 +10°C° 0,3 mm 8 m/s 752 mmHg 90%
    11:00 +11°C° 0,3 mm 8 m/s 752 mmHg 89%
    12:00 +11°C° 0,3 mm 8 m/s 752 mmHg 87%
    13:00 +11°C° 0 mm 7 m/s 752 mmHg 88%
    14:00 +11°C° 0 mm 6 m/s 752 mmHg 89%
    15:00 +11°C° 0 mm 6 m/s 752 mmHg 90%
    16:00 +10°C° 0 mm 5 m/s 752 mmHg 91%
    17:00 +10°C° 0 mm 5 m/s 752 mmHg 93%
    18:00 +10°C° 0 mm 4 m/s 753 mmHg 95%
    19:00 +10°C° 0,4 mm 3 m/s 753 mmHg 95%
    20:00 +11°C° 0,4 mm 3 m/s 753 mmHg 96%
    21:00 +12°C° 0,4 mm 2 m/s 753 mmHg 96%
    22:00 +11°C° 0,3 mm 3 m/s 753 mmHg 96%
    23:00 +12°C° 0,3 mm 3 m/s 752 mmHg 96%

    21 Novembre, Mardi

    Heure Température Précipitation Vent Pression Humidité
    00:00 +12°C° 0,3 mm 4 m/s 752 mmHg 96%
    01:00 +12°C° 0 mm 4 m/s 752 mmHg 95%
    02:00 +10°C° 0 mm 5 m/s 751 mmHg 94%
    03:00 +10°C° 0 mm 5 m/s 751 mmHg 94%
    04:00 +10°C° 0,4 mm 5 m/s 750 mmHg 94%
    05:00 +10°C° 0,4 mm 6 m/s 750 mmHg 93%
    06:00 +9°C° 0,4 mm 6 m/s 749 mmHg 93%
    07:00 +10°C° 0,9 mm 7 m/s 748 mmHg 93%
    08:00 +10°C° 0,9 mm 7 m/s 748 mmHg 93%
    09:00 +10°C° 0,9 mm 7 m/s 747 mmHg 93%
    10:00 +11°C° 0 mm 8 m/s 747 mmHg 92%
    11:00 +12°C° 0 mm 8 m/s 747 mmHg 90%
    12:00 +13°C° 0 mm 8 m/s 746 mmHg 89%
    13:00 +13°C° 0 mm 8 m/s 746 mmHg 89%
    14:00 +13°C° 0 mm 8 m/s 745 mmHg 88%
    15:00 +12°C° 0 mm 7 m/s 745 mmHg 88%
    16:00 +12°C° 0,3 mm 7 m/s 745 mmHg 89%
    17:00 +12°C° 0,3 mm 7 m/s 745 mmHg 90%
    18:00 +12°C° 0,3 mm 7 m/s 744 mmHg 91%
    19:00 +12°C° 0,8 mm 7 m/s 744 mmHg 91%
    20:00 +12°C° 0,8 mm 7 m/s 744 mmHg 92%
    21:00 +13°C° 0,8 mm 6 m/s 744 mmHg 92%
    22:00 +13°C° 1,5 mm 6 m/s 743 mmHg 93%
    23:00 +13°C° 1,5 mm 5 m/s 743 mmHg 93%

    22 Novembre, Mercredi

    Heure Température Précipitation Vent Pression Humidité
    00:00 +13°C° 1,5 mm 5 m/s 742 mmHg 94%
    01:00 +13°C° 1,6 mm 5 m/s 742 mmHg 94%
    02:00 +13°C° 1,6 mm 5 m/s 741 mmHg 93%
    03:00 +13°C° 1,6 mm 5 m/s 741 mmHg 93%
    04:00 +13°C° 1,9 mm 5 m/s 741 mmHg 92%
    05:00 +13°C° 1,9 mm 5 m/s 740 mmHg 92%
    06:00 +13°C° 1,9 mm 6 m/s 740 mmHg 92%
    07:00 +13°C° 1,2 mm 6 m/s 740 mmHg 92%
    08:00 +13°C° 1,2 mm 6 m/s 739 mmHg 92%
    09:00 +13°C° 1,2 mm 6 m/s 739 mmHg 91%
    10:00 +13°C° 0,8 mm 6 m/s 739 mmHg 90%
    11:00 +14°C° 0,8 mm 7 m/s 739 mmHg 89%
    12:00 +14°C° 0,8 mm 7 m/s 739 mmHg 88%
    13:00 +13°C° 0,5 mm 8 m/s 738 mmHg 87%
    14:00 +13°C° 0,5 mm 9 m/s 738 mmHg 86%
    15:00 +13°C° 0,5 mm 9 m/s 737 mmHg 85%
    16:00 +13°C° 0,1 mm 10 m/s 736 mmHg 84%
    17:00 +13°C° 0,1 mm 10 m/s 736 mmHg 83%
    18:00 +12°C° 0,1 mm 11 m/s 735 mmHg 82%
    19:00 +12°C° 0,3 mm 11 m/s 734 mmHg 81%
    20:00 +12°C° 0,3 mm 11 m/s 733 mmHg 80%
    21:00 +12°C° 0,3 mm 12 m/s 733 mmHg 79%
    22:00 +12°C° 0 mm 12 m/s 732 mmHg 80%
    23:00 +12°C° 0 mm 13 m/s 731 mmHg 81%

    23 Novembre, Jeudi

    Heure Température Précipitation Vent Pression Humidité
    00:00 +12°C° 0 mm 13 m/s 730 mmHg 82%
    01:00 +12°C° 0,1 mm 12 m/s 730 mmHg 82%
    02:00 +10°C° 0,1 mm 12 m/s 731 mmHg 83%
    03:00 +11°C° 0,1 mm 11 m/s 731 mmHg 83%
    04:00 +9°C° 0,1 mm 10 m/s 732 mmHg 82%
    05:00 +8°C° 0,1 mm 10 m/s 733 mmHg 82%
    06:00 +7°C° 0,1 mm 9 m/s 734 mmHg 81%
    07:00 +6°C° 0 mm 9 m/s 735 mmHg 81%
    08:00 +6°C° 0 mm 8 m/s 736 mmHg 82%
    09:00 +5°C° 0 mm 7 m/s 737 mmHg 82%
    10:00 +7°C° 0 mm 6 m/s 738 mmHg 81%
    11:00 +7°C° 0 mm 6 m/s 738 mmHg 80%
    12:00 +8°C° 0 mm 5 m/s 739 mmHg 78%
    13:00 +8°C° 0 mm 5 m/s 739 mmHg 79%
    14:00 +8°C° 0 mm 5 m/s 740 mmHg 81%
    15:00 +8°C° 0 mm 5 m/s 740 mmHg 82%
    16:00 +8°C° 0,1 mm 4 m/s 740 mmHg 86%
    17:00 +8°C° 0,1 mm 4 m/s 740 mmHg 90%
    18:00 +7°C° 0,1 mm 4 m/s 740 mmHg 94%
    19:00 +8°C° 1,5 mm 4 m/s 739 mmHg 94%
    20:00 +9°C° 1,5 mm 3 m/s 739 mmHg 95%
    21:00 +10°C° 1,5 mm 3 m/s 739 mmHg 95%
    22:00 +9°C° 0 mm 5 m/s 739 mmHg 93%
    23:00 +9°C° 0 mm 6 m/s 740 mmHg 91%
    Voir plus